| time (UTC) | temp C | wind direction | speed KPH | gust KPH | rain 1hr cm | rain 24hr cm | rain mn cm | humidity % | barometer mb |
| 20260507125503 | 20 | 247 | 8.0 | 12.9 | 0.00 | 1.04 | 0.10 | 54 | 1011.0 |
| 20260507125003 | 20 | 229 | 8.0 | 12.9 | 0.00 | 1.27 | 0.10 | 55 | 1011.0 |
| 20260507124503 | 20 | 223 | 11.3 | 16.1 | 0.00 | 1.30 | 0.10 | 55 | 1011.1 |
| 20260507124003 | 20 | 229 | 11.3 | 16.1 | 0.00 | 1.35 | 0.10 | 56 | 1011.2 |
| 20260507123503 | 19 | 245 | 9.7 | 12.9 | 0.00 | 1.35 | 0.10 | 57 | 1011.1 |
| 20260507123003 | 19 | 220 | 9.7 | 12.9 | 0.00 | 1.35 | 0.10 | 58 | 1011.1 |
| 20260507122503 | 18 | 221 | 9.7 | 12.9 | 0.00 | 1.35 | 0.10 | 57 | 1011.1 |
| 20260507122024 | 18 | 258 | 6.4 | 12.9 | 0.00 | 1.35 | 0.10 | 58 | 1011.2 |
| 20260507121503 | 19 | 307 | 8.0 | 16.1 | 0.00 | 1.35 | 0.10 | 57 | 1010.8 |
| 20260507121003 | 18 | 119 | 11.3 | 16.1 | 0.00 | 1.35 | 0.10 | 57 | 1011.0 |
| 20260507120503 | 18 | 146 | 9.7 | 12.9 | 0.00 | 1.35 | 0.10 | 60 | 1011.2 |
| 20260507120004 | 18 | 237 | 6.4 | 12.9 | 0.00 | 1.35 | 0.10 | 60 | 1011.1 |
| 20260507115503 | 17 | 255 | 8.0 | 11.3 | 0.00 | 1.35 | 0.10 | 61 | 1011.1 |
| 20260507115003 | 17 | 270 | 6.4 | 11.3 | 0.00 | 1.35 | 0.10 | 61 | 1011.1 |
| 20260507114504 | 17 | 336 | 4.8 | 8.0 | 0.00 | 1.35 | 0.10 | 62 | 1011.2 |
| 20260507114004 | 17 | 295 | 6.4 | 8.0 | 0.00 | 1.35 | 0.10 | 61 | 1011.2 |
| 20260507113504 | 17 | 292 | 6.4 | 8.0 | 0.00 | 1.35 | 0.10 | 63 | 1011.3 |
| 20260507113005 | 17 | 286 | 1.6 | 8.0 | 0.00 | 1.35 | 0.10 | 68 | 1011.4 |
| 20260507112504 | 17 | 13 | 1.6 | 8.0 | 0.00 | 1.35 | 0.10 | 69 | 1011.5 |
| 20260507112004 | 17 | 234 | 4.8 | 8.0 | 0.00 | 1.35 | 0.10 | 68 | 1011.5 |
| 20260507111506 | 16 | 235 | 6.4 | 8.0 | 0.00 | 1.35 | 0.10 | 68 | 1011.5 |
| 20260507111004 | 16 | 266 | 6.4 | 9.7 | 0.00 | 1.35 | 0.10 | 67 | 1011.5 |
| 20260507110507 | 16 | 273 | 4.8 | 9.7 | 0.00 | 1.35 | 0.10 | 68 | 1011.5 |
| 20260507110005 | 16 | 246 | 4.8 | 6.4 | 0.00 | 1.35 | 0.10 | 68 | 1011.7 |
| 20260507105504 | 16 | 277 | 4.8 | 6.4 | 0.00 | 1.35 | 0.10 | 67 | 1011.6 |
| 20260507105004 | 16 | 265 | 3.2 | 6.4 | 0.00 | 1.35 | 0.10 | 67 | 1011.8 |
| 20260507104504 | 16 | 209 | 3.2 | 8.0 | 0.00 | 1.35 | 0.10 | 67 | 1011.8 |
| 20260507104004 | 16 | 249 | 6.4 | 8.0 | 0.00 | 1.35 | 0.10 | 66 | 1011.9 |
| 20260507103504 | 17 | 294 | 6.4 | 9.7 | 0.00 | 1.35 | 0.10 | 66 | 1011.9 |
| 20260507103004 | 17 | 303 | 8.0 | 9.7 | 0.00 | 1.35 | 0.10 | 66 | 1011.9 |
| 20260507102504 | 17 | 317 | 6.4 | 9.7 | 0.00 | 1.35 | 0.10 | 63 | 1011.9 |
| 20260507102006 | 17 | 273 | 6.4 | 9.7 | 0.00 | 1.35 | 0.10 | 64 | 1011.9 |
| 20260507101504 | 17 | 205 | 6.4 | 9.7 | 0.00 | 1.35 | 0.10 | 65 | 1012.1 |
| 20260507101004 | 17 | 186 | 4.8 | 9.7 | 0.00 | 1.35 | 0.10 | 65 | 1012.0 |
| 20260507100504 | 17 | 190 | 6.4 | 14.5 | 0.00 | 1.35 | 0.10 | 65 | 1011.9 |
| 20260507100025 | 17 | 216 | 9.7 | 14.5 | 0.00 | 1.35 | 0.10 | 65 | 1012.0 |
| 20260507095504 | 17 | 230 | 8.0 | 12.9 | 0.00 | 1.37 | 0.10 | 66 | 1011.9 |
| 20260507095004 | 17 | 264 | 8.0 | 11.3 | 0.00 | 1.37 | 0.10 | 65 | 1011.9 |
| 20260507094504 | 17 | 261 | 8.0 | 12.9 | 0.00 | 1.37 | 0.10 | 65 | 1012.0 |
| 20260507094004 | 17 | 233 | 8.0 | 12.9 | 0.00 | 1.37 | 0.10 | 67 | 1011.9 |
| 20260507093504 | 17 | 207 | 8.0 | 9.7 | 0.00 | 1.37 | 0.10 | 68 | 1011.9 |
| 20260507093004 | 17 | 213 | 8.0 | 9.7 | 0.00 | 1.37 | 0.10 | 69 | 1011.8 |
| 20260507092504 | 17 | 216 | 8.0 | 12.9 | 0.00 | 1.37 | 0.10 | 69 | 1011.7 |
| 20260507092004 | 17 | 220 | 8.0 | 12.9 | 0.00 | 1.37 | 0.10 | 69 | 1011.9 |
| 20260507091504 | 17 | 267 | 6.4 | 8.0 | 0.00 | 1.37 | 0.10 | 72 | 1011.8 |
| 20260507091004 | 17 | 307 | 3.2 | 8.0 | 0.00 | 1.37 | 0.10 | 72 | 1011.7 |
| 20260507090504 | 16 | 33 | 1.6 | 4.8 | 0.00 | 1.37 | 0.10 | 73 | 1011.8 |
| 20260507090005 | 16 | 117 | 4.8 | 11.3 | 0.00 | 1.37 | 0.10 | 73 | 1011.7 |
| 20260507085504 | 16 | 129 | 6.4 | 11.3 | 0.00 | 1.37 | 0.10 | 74 | 1011.7 |
| 20260507085004 | 16 | 72 | 4.8 | 6.4 | 0.00 | 1.37 | 0.10 | 75 | 1011.8 |
| 20260507084525 | 16 | 39 | 3.2 | 6.4 | 0.00 | 1.37 | 0.10 | 75 | 1011.7 |
| 20260507084004 | 16 | 229 | 3.2 | 6.4 | 0.00 | 1.37 | 0.10 | 76 | 1011.7 |
| 20260507083504 | 16 | 97 | 8.0 | 9.7 | 0.00 | 1.37 | 0.10 | 76 | 1011.7 |
| 20260507083005 | 16 | 85 | 6.4 | 12.9 | 0.00 | 1.37 | 0.10 | 78 | 1011.7 |
| 20260507082504 | 16 | 145 | 3.2 | 12.9 | 0.00 | 1.37 | 0.10 | 80 | 1011.8 |
| 20260507082025 | 15 | 55 | 3.2 | 11.3 | 0.00 | 1.37 | 0.10 | 80 | 1011.7 |
| 20260507081504 | 15 | 36 | 6.4 | 11.3 | 0.00 | 1.37 | 0.10 | 80 | 1011.7 |
| 20260507081004 | 14 | 22 | 6.4 | 6.4 | 0.00 | 1.37 | 0.10 | 80 | 1011.6 |
| 20260507080504 | 14 | 15 | 6.4 | 6.4 | 0.00 | 1.37 | 0.10 | 80 | 1011.5 |
| 20260507080005 | 14 | 10 | 6.4 | 6.4 | 0.00 | 1.37 | 0.10 | 80 | 1011.4 |
| 20260507075504 | 13 | 9 | 6.4 | 8.0 | 0.00 | 1.37 | 0.10 | 80 | 1011.5 |
| 20260507075004 | 13 | 18 | 8.0 | 11.3 | 0.00 | 1.37 | 0.10 | 80 | 1011.6 |
| 20260507074504 | 13 | 25 | 9.7 | 11.3 | 0.00 | 1.37 | 0.10 | 81 | 1011.5 |
| 20260507074025 | 13 | 32 | 9.7 | 11.3 | 0.00 | 1.37 | 0.10 | 82 | 1011.5 |
| 20260507073525 | 13 | 28 | 8.0 | 11.3 | 0.00 | 1.37 | 0.10 | 83 | 1011.5 |
| 20260507073004 | 13 | 17 | 8.0 | 11.3 | 0.00 | 1.37 | 0.10 | 84 | 1011.5 |
| 20260507072525 | 12 | 15 | 9.7 | 11.3 | 0.00 | 1.37 | 0.10 | 84 | 1011.4 |
| 20260507072004 | 12 | 13 | 9.7 | 12.9 | 0.00 | 1.37 | 0.10 | 84 | 1011.6 |
| 20260507071504 | 12 | 11 | 6.4 | 12.9 | 0.00 | 1.37 | 0.10 | 85 | 1011.4 |
| 20260507071004 | 12 | 7 | 4.8 | 8.0 | 0.00 | 1.42 | 0.10 | 89 | 1011.5 |
| 20260507070504 | 11 | 20 | 6.4 | 11.3 | 0.00 | 1.42 | 0.10 | 89 | 1011.4 |
| 20260507070009 | 11 | 15 | 8.0 | 11.3 | 0.00 | 1.42 | 0.10 | 89 | 1011.4 |
| 20260507065504 | 11 | 7 | 9.7 | 12.9 | 0.00 | 1.42 | 0.10 | 89 | 1011.3 |
| 20260507065004 | 11 | 360 | 9.7 | 12.9 | 0.00 | 1.42 | 0.10 | 90 | 1011.3 |
| 20260507064504 | 11 | 4 | 9.7 | 12.9 | 0.00 | 1.42 | 0.10 | 90 | 1011.3 |
| 20260507064004 | 11 | 9 | 9.7 | 12.9 | 0.00 | 1.42 | 0.10 | 90 | 1011.2 |
| 20260507063504 | 11 | 9 | 9.7 | 12.9 | 0.00 | 1.42 | 0.10 | 90 | 1011.0 |
| 20260507063004 | 10 | 8 | 9.7 | 11.3 | 0.00 | 1.42 | 0.10 | 90 | 1011.2 |
| 20260507062504 | 10 | 13 | 9.7 | 17.7 | 0.00 | 1.42 | 0.10 | 90 | 1011.1 |
| 20260507062004 | 10 | 13 | 11.3 | 17.7 | 0.00 | 1.42 | 0.10 | 90 | 1011.0 |
| 20260507061504 | 10 | 12 | 11.3 | 14.5 | 0.00 | 1.42 | 0.10 | 90 | 1011.0 |
| 20260507061004 | 10 | 19 | 9.7 | 14.5 | 0.00 | 1.42 | 0.10 | 90 | 1011.1 |
| 20260507060525 | 10 | 18 | 9.7 | 12.9 | 0.00 | 1.42 | 0.10 | 90 | 1010.9 |
| 20260507060025 | 10 | 16 | 9.7 | 12.9 | 0.00 | 1.42 | 0.10 | 90 | 1010.9 |
| 20260507055504 | 10 | 16 | 8.0 | 12.9 | 0.00 | 1.42 | 0.10 | 90 | 1010.8 |
| 20260507055004 | 10 | 13 | 6.4 | 8.0 | 0.00 | 1.42 | 0.10 | 90 | 1011.0 |
| 20260507054504 | 10 | 7 | 8.0 | 12.9 | 0.00 | 1.42 | 0.10 | 90 | 1010.8 |
| 20260507054025 | 10 | 13 | 9.7 | 12.9 | 0.00 | 1.42 | 0.10 | 90 | 1010.8 |
| 20260507053504 | 10 | 29 | 9.7 | 12.9 | 0.00 | 1.42 | 0.10 | 90 | 1010.7 |
| 20260507053025 | 10 | 23 | 9.7 | 12.9 | 0.00 | 1.42 | 0.10 | 91 | 1010.6 |
| 20260507052504 | 10 | 20 | 11.3 | 16.1 | 0.00 | 1.45 | 0.10 | 91 | 1010.5 |
| 20260507052004 | 10 | 21 | 11.3 | 16.1 | 0.00 | 1.45 | 0.10 | 91 | 1010.6 |
| 20260507051504 | 10 | 21 | 11.3 | 16.1 | 0.00 | 1.45 | 0.10 | 91 | 1010.4 |
| 20260507051004 | 10 | 48 | 11.3 | 16.1 | 0.00 | 1.45 | 0.10 | 91 | 1010.3 |
| 20260507050504 | 10 | 64 | 11.3 | 12.9 | 0.00 | 1.45 | 0.10 | 91 | 1010.2 |
| 20260507050005 | 10 | 41 | 11.3 | 12.9 | 0.00 | 1.45 | 0.10 | 91 | 1010.3 |
| 20260507045504 | 9 | 17 | 9.7 | 12.9 | 0.00 | 1.45 | 0.10 | 91 | 1010.4 |
| 20260507045025 | 9 | 13 | 8.0 | 9.7 | 0.00 | 1.45 | 0.10 | 91 | 1010.2 |
| 20260507044504 | 9 | 18 | 8.0 | 11.3 | 0.00 | 1.45 | 0.10 | 91 | 1010.2 |
| 20260507044004 | 9 | 36 | 9.7 | 14.5 | 0.00 | 1.45 | 0.10 | 91 | 1010.0 |
| 20260507043504 | 9 | 35 | 11.3 | 14.5 | 0.00 | 1.45 | 0.10 | 91 | 1010.0 |
| 20260507043004 | 9 | 17 | 8.0 | 11.3 | 0.00 | 1.45 | 0.10 | 91 | 1009.9 |
| 20260507042504 | 9 | 8 | 9.7 | 11.3 | 0.00 | 1.45 | 0.10 | 91 | 1009.9 |
| 20260507042025 | 9 | 12 | 8.0 | 11.3 | 0.00 | 1.45 | 0.10 | 91 | 1009.7 |
| 20260507041525 | 10 | 22 | 8.0 | 11.3 | 0.00 | 1.45 | 0.10 | 91 | 1009.9 |
| 20260507041004 | 10 | 12 | 8.0 | 11.3 | 0.00 | 1.45 | 0.10 | 91 | 1009.7 |
| 20260507040504 | 10 | 7 | 8.0 | 11.3 | 0.00 | 1.45 | 0.10 | 91 | 1009.6 |
| 20260507040004 | 10 | 15 | 9.7 | 12.9 | 0.00 | 1.45 | 0.10 | 91 | 1009.7 |
| 20260507035504 | 10 | 18 | 9.7 | 12.9 | 0.00 | 1.45 | 0.10 | 91 | 1009.9 |
| 20260507035004 | 10 | 14 | 11.3 | 14.5 | 0.00 | 1.45 | 0.10 | 91 | 1009.9 |
| 20260507034505 | 10 | 13 | 11.3 | 19.3 | 0.00 | 1.45 | 0.10 | 91 | 1009.6 |
| 20260507034025 | 10 | 16 | 11.3 | 19.3 | 0.00 | 1.45 | 0.10 | 91 | 1009.7 |
| 20260507033525 | 10 | 16 | 12.9 | 19.3 | 0.00 | 1.45 | 0.10 | 91 | 1009.7 |
| 20260507033004 | 10 | 23 | 12.9 | 16.1 | 0.00 | 1.47 | 0.10 | 91 | 1009.7 |
| 20260507032525 | 10 | 37 | 14.5 | 14.5 | 0.00 | 1.47 | 0.10 | 91 | 1009.7 |
| 20260507032004 | 10 | 45 | 14.5 | 16.1 | 0.00 | 1.47 | 0.10 | 91 | 1009.7 |
| 20260507031504 | 10 | 48 | 14.5 | 17.7 | 0.00 | 1.47 | 0.10 | 91 | 1009.7 |
| 20260507031004 | 10 | 49 | 12.9 | 17.7 | 0.00 | 1.50 | 0.10 | 91 | 1009.7 |
| 20260507030504 | 10 | 47 | 11.3 | 17.7 | 0.03 | 1.75 | 0.10 | 91 | 1009.6 |
| 20260507030004 | 10 | 57 | 12.9 | 17.7 | 0.03 | 1.75 | 0.10 | 91 | 1009.7 |
| 20260507025504 | 10 | 47 | 12.9 | 17.7 | 0.03 | 1.75 | 0.10 | 91 | 1009.7 |
| 20260507025004 | 10 | 41 | 12.9 | 16.1 | 0.03 | 1.78 | 0.10 | 91 | 1009.7 |
| 20260507024504 | 10 | 58 | 12.9 | 19.3 | 0.03 | 1.85 | 0.10 | 91 | 1009.7 |
| 20260507024025 | 10 | 49 | 14.5 | 19.3 | 0.03 | 2.01 | 0.10 | 91 | 1009.5 |
| 20260507023525 | 10 | 38 | 12.9 | 16.1 | 0.03 | 2.01 | 0.10 | 91 | 1009.6 |
| 20260507023004 | 10 | 48 | 12.9 | 16.1 | 0.03 | 2.01 | 0.10 | 91 | 1009.7 |
| 20260507022504 | 10 | 49 | 11.3 | 12.9 | 0.03 | 2.01 | 0.10 | 91 | 1009.7 |
| 20260507022004 | 10 | 40 | 12.9 | 17.7 | 0.03 | 2.01 | 0.10 | 91 | 1009.7 |
| 20260507021504 | 10 | 47 | 14.5 | 17.7 | 0.03 | 2.01 | 0.10 | 91 | 1009.9 |
| 20260507021025 | 10 | 60 | 12.9 | 16.1 | 0.03 | 2.01 | 0.10 | 91 | 1009.7 |
| 20260507020504 | 10 | 54 | 11.3 | 16.1 | 0.00 | 1.98 | 0.05 | 91 | 1009.9 |
| 20260507020004 | 10 | 40 | 11.3 | 16.1 | 0.00 | 1.98 | 0.05 | 91 | 1009.7 |
| 20260507015504 | 10 | 35 | 11.3 | 12.9 | 0.00 | 1.98 | 0.05 | 91 | 1009.9 |
| 20260507015004 | 10 | 32 | 9.7 | 12.9 | 0.00 | 1.98 | 0.05 | 91 | 1009.9 |
| 20260507014525 | 10 | 38 | 9.7 | 12.9 | 0.00 | 1.98 | 0.05 | 91 | 1010.0 |
| 20260507014004 | 10 | 48 | 9.7 | 12.9 | 0.00 | 1.98 | 0.05 | 91 | 1009.7 |
| 20260507013504 | 10 | 47 | 8.0 | 11.3 | 0.00 | 1.98 | 0.05 | 91 | 1009.5 |
| 20260507013004 | 10 | 36 | 6.4 | 9.7 | 0.03 | 1.98 | 0.05 | 91 | 1009.6 |
| 20260507012504 | 10 | 20 | 4.8 | 9.7 | 0.03 | 1.98 | 0.05 | 91 | 1009.6 |
| 20260507012025 | 10 | 12 | 4.8 | 11.3 | 0.03 | 1.98 | 0.05 | 91 | 1009.5 |
| 20260507011504 | 10 | 33 | 9.7 | 12.9 | 0.03 | 1.98 | 0.05 | 90 | 1009.7 |
| 20260507011004 | 10 | 31 | 9.7 | 12.9 | 0.03 | 2.01 | 0.05 | 90 | 1009.4 |
| 20260507010504 | 10 | 23 | 8.0 | 12.9 | 0.03 | 2.01 | 0.05 | 90 | 1009.4 |
| 20260507010004 | 10 | 16 | 6.4 | 9.7 | 0.03 | 2.01 | 0.05 | 90 | 1009.6 |
| 20260507005525 | 10 | 17 | 4.8 | 6.4 | 0.03 | 2.01 | 0.05 | 90 | 1009.6 |
| 20260507005004 | 10 | 15 | 4.8 | 8.0 | 0.03 | 2.01 | 0.05 | 90 | 1009.5 |
| 20260507004504 | 10 | 9 | 4.8 | 8.0 | 0.03 | 2.01 | 0.05 | 90 | 1009.6 |
| 20260507004004 | 10 | 12 | 4.8 | 8.0 | 0.03 | 2.01 | 0.05 | 90 | 1009.4 |
| 20260507003504 | 10 | 39 | 6.4 | 11.3 | 0.03 | 2.01 | 0.05 | 90 | 1009.5 |
| 20260507003004 | 10 | 49 | 9.7 | 17.7 | 0.00 | 1.98 | 0.03 | 90 | 1009.4 |
| 20260507002504 | 10 | 47 | 12.9 | 17.7 | 0.00 | 1.98 | 0.03 | 90 | 1009.3 |
| 20260507002025 | 10 | 35 | 14.5 | 17.7 | 0.00 | 1.98 | 0.03 | 90 | 1009.4 |
| 20260507001504 | 10 | 18 | 11.3 | 12.9 | 0.00 | 1.98 | 0.03 | 90 | 1009.6 |
| 20260507001025 | 10 | 2 | 8.0 | 12.9 | 0.00 | 1.98 | 0.03 | 90 | 1009.5 |
| 20260507000505 | 10 | 349 | 6.4 | 6.4 | 0.00 | 1.98 | 0.03 | 90 | 1009.5 |
| 20260507000004 | 10 | 14 | 8.0 | 12.9 | 0.00 | 1.98 | 0.03 | 90 | 1009.6 |
| 20260506235504 | 10 | 17 | 9.7 | 12.9 | 0.00 | 1.98 | 0.03 | 90 | 1009.5 |
| 20260506235004 | 10 | 17 | 8.0 | 12.9 | 0.00 | 1.98 | 0.03 | 90 | 1009.5 |
| 20260506234504 | 10 | 17 | 8.0 | 12.9 | 0.00 | 1.98 | 0.03 | 90 | 1009.6 |
| 20260506234004 | 10 | 25 | 8.0 | 9.7 | 0.00 | 1.98 | 0.03 | 90 | 1009.5 |
| 20260506233504 | 10 | 29 | 9.7 | 12.9 | 0.00 | 1.98 | 0.03 | 90 | 1009.4 |
| 20260506233004 | 10 | 17 | 11.3 | 14.5 | 0.00 | 1.98 | 0.03 | 90 | 1009.4 |
| 20260506232525 | 10 | 15 | 11.3 | 14.5 | 0.03 | 1.98 | 0.03 | 90 | 1009.4 |
| 20260506232004 | 10 | 25 | 12.9 | 17.7 | 0.03 | 1.98 | 0.03 | 90 | 1009.4 |
| 20260506231505 | 10 | 5 | 14.5 | 17.7 | 0.03 | 1.98 | 0.03 | 90 | 1009.5 |
| 20260506231003 | 10 | 12 | 11.3 | 17.7 | 0.03 | 1.98 | 0.03 | 90 | 1009.4 |
| 20260506230503 | 10 | 26 | 12.9 | 17.7 | 0.03 | 1.98 | 0.03 | 90 | 1009.6 |
| 20260506230004 | 10 | 28 | 12.9 | 17.7 | 0.03 | 1.98 | 0.03 | 90 | 1009.4 |
| 20260506225524 | 10 | 25 | 12.9 | 17.7 | 0.03 | 1.98 | 0.03 | 90 | 1009.3 |
| 20260506225003 | 10 | 20 | 12.9 | 16.1 | 0.03 | 1.98 | 0.03 | 90 | 1009.4 |
| 20260506224503 | 10 | 18 | 14.5 | 17.7 | 0.03 | 1.98 | 0.03 | 90 | 1009.4 |
| 20260506224003 | 10 | 21 | 14.5 | 17.7 | 0.05 | 1.98 | 0.03 | 90 | 1009.4 |
| 20260506223503 | 10 | 22 | 14.5 | 17.7 | 0.05 | 1.98 | 0.03 | 89 | 1009.4 |
| 20260506223003 | 10 | 9 | 12.9 | 17.7 | 0.05 | 1.98 | 0.03 | 89 | 1009.3 |
| 20260506222524 | 10 | 6 | 12.9 | 17.7 | 0.03 | 1.96 | 0.00 | 89 | 1009.3 |
| 20260506222003 | 10 | 13 | 11.3 | 17.7 | 0.03 | 1.96 | 0.00 | 89 | 1009.3 |
| 20260506221504 | 10 | 13 | 8.0 | 11.3 | 0.03 | 1.96 | 0.00 | 89 | 1009.3 |
| 20260506221024 | 10 | 16 | 6.4 | 11.3 | 0.03 | 1.96 | 0.00 | 89 | 1009.4 |
| 20260506220524 | 10 | 15 | 6.4 | 11.3 | 0.03 | 1.96 | 0.00 | 89 | 1009.4 |
| 20260506220004 | 10 | 24 | 9.7 | 12.9 | 0.05 | 1.96 | 0.00 | 89 | 1009.2 |
| 20260506215524 | 10 | 25 | 9.7 | 12.9 | 0.05 | 1.98 | 1.96 | 89 | 1009.2 |
| 20260506215004 | 10 | 20 | 8.0 | 11.3 | 0.05 | 1.98 | 1.96 | 89 | 1009.1 |
| 20260506214503 | 10 | 18 | 6.4 | 11.3 | 0.15 | 1.98 | 1.96 | 89 | 1009.3 |
| 20260506214003 | 10 | 6 | 8.0 | 9.7 | 0.15 | 1.98 | 1.93 | 89 | 1009.1 |
| 20260506213503 | 10 | 5 | 8.0 | 9.7 | 0.15 | 2.01 | 1.93 | 89 | 1009.1 |
| 20260506213003 | 10 | 13 | 9.7 | 12.9 | 0.15 | 2.03 | 1.93 | 89 | 1009.1 |
| 20260506212503 | 10 | 22 | 9.7 | 12.9 | 0.15 | 2.06 | 1.93 | 89 | 1009.1 |
| 20260506212003 | 10 | 24 | 9.7 | 12.9 | 0.15 | 2.11 | 1.93 | 89 | 1009.2 |
| 20260506211503 | 10 | 13 | 4.8 | 8.0 | 0.15 | 2.11 | 1.93 | 88 | 1009.2 |
| 20260506211003 | 10 | 356 | 3.2 | 6.4 | 0.15 | 2.11 | 1.93 | 88 | 1009.2 |
| 20260506210503 | 11 | 40 | 4.8 | 9.7 | 0.15 | 2.11 | 1.93 | 88 | 1009.3 |
| 20260506210003 | 10 | 39 | 8.0 | 11.3 | 0.13 | 2.06 | 1.88 | 88 | 1009.3 |
| 20260506205503 | 11 | 19 | 8.0 | 11.3 | 0.13 | 2.06 | 1.88 | 88 | 1009.0 |
| 20260506205003 | 11 | 9 | 6.4 | 8.0 | 0.13 | 2.06 | 1.88 | 88 | 1009.3 |
| 20260506204524 | 11 | 16 | 4.8 | 6.4 | 0.03 | 1.98 | 1.80 | 88 | 1009.1 |
| 20260506204024 | 11 | 48 | 3.2 | 6.4 | 0.00 | 1.96 | 1.78 | 88 | 1008.8 |
| 20260506203503 | 10 | 39 | 6.4 | 6.4 | 0.00 | 1.96 | 1.78 | 88 | 1008.7 |
| 20260506203003 | 10 | 18 | 6.4 | 6.4 | 0.00 | 1.96 | 1.78 | 88 | 1008.8 |
| 20260506202503 | 10 | 15 | 3.2 | 6.4 | 0.00 | 1.96 | 1.78 | 88 | 1008.8 |
| 20260506202003 | 10 | 7 | 3.2 | 6.4 | 0.00 | 1.96 | 1.78 | 87 | 1008.7 |
| 20260506201503 | 10 | 11 | 4.8 | 8.0 | 0.00 | 1.96 | 1.78 | 87 | 1008.6 |
| 20260506201024 | 10 | 20 | 8.0 | 8.0 | 0.00 | 1.96 | 1.78 | 87 | 1008.7 |
| 20260506200524 | 10 | 23 | 8.0 | 8.0 | 0.00 | 1.96 | 1.78 | 87 | 1008.7 |
| 20260506200004 | 10 | 43 | 8.0 | 9.7 | 0.00 | 1.96 | 1.78 | 87 | 1008.5 |
| 20260506195524 | 10 | 36 | 8.0 | 11.3 | 0.00 | 1.96 | 1.78 | 87 | 1008.5 |
| 20260506195024 | 10 | 15 | 8.0 | 11.3 | 0.00 | 1.96 | 1.78 | 87 | 1008.5 |
| 20260506194503 | 11 | 13 | 8.0 | 11.3 | 0.00 | 1.96 | 1.78 | 87 | 1008.5 |
| 20260506194003 | 11 | 26 | 8.0 | 11.3 | 0.00 | 1.96 | 1.78 | 87 | 1008.4 |
| 20260506193524 | 11 | 38 | 8.0 | 9.7 | 0.00 | 1.98 | 1.78 | 87 | 1008.4 |
| 20260506193003 | 11 | 32 | 6.4 | 9.7 | 0.00 | 2.01 | 1.78 | 87 | 1008.4 |
| 20260506192503 | 11 | 18 | 6.4 | 9.7 | 0.03 | 2.06 | 1.78 | 87 | 1008.3 |
| 20260506192024 | 10 | 11 | 6.4 | 6.4 | 0.03 | 2.11 | 1.78 | 87 | 1008.1 |
| 20260506191503 | 11 | 11 | 6.4 | 9.7 | 0.10 | 2.11 | 1.78 | 87 | 1008.0 |
| 20260506191003 | 11 | 17 | 6.4 | 9.7 | 0.15 | 2.13 | 1.78 | 87 | 1008.1 |
| 20260506190503 | 11 | 20 | 3.2 | 6.4 | 0.23 | 2.18 | 1.78 | 86 | 1007.9 |
| 20260506190003 | 11 | 351 | 3.2 | 9.7 | 0.23 | 2.18 | 1.78 | 86 | 1007.7 |
| 20260506185503 | 11 | 346 | 4.8 | 9.7 | 0.28 | 2.26 | 1.78 | 86 | 1007.7 |
| 20260506185003 | 11 | 58 | 4.8 | 12.9 | 0.30 | 2.26 | 1.78 | 86 | 1007.6 |
| 20260506184524 | 11 | 64 | 12.9 | 24.1 | 0.30 | 2.26 | 1.78 | 86 | 1007.6 |
| 20260506184003 | 11 | 78 | 19.3 | 25.7 | 0.33 | 2.26 | 1.78 | 86 | 1007.1 |
| 20260506183524 | 11 | 97 | 20.9 | 25.7 | 0.36 | 2.29 | 1.78 | 86 | 1006.8 |
| 20260506183004 | 11 | 98 | 22.5 | 29.0 | 0.38 | 2.29 | 1.78 | 86 | 1006.5 |
| 20260506182503 | 11 | 77 | 25.7 | 32.2 | 0.38 | 2.26 | 1.75 | 85 | 1006.5 |
| 20260506182024 | 11 | 73 | 24.1 | 32.2 | 0.38 | 2.29 | 1.75 | 85 | 1005.7 |
| 20260506181503 | 11 | 104 | 14.5 | 27.4 | 0.36 | 2.21 | 1.68 | 84 | 1006.4 |
| 20260506181003 | 11 | 106 | 8.0 | 12.9 | 0.30 | 2.16 | 1.63 | 84 | 1007.4 |
| 20260506180503 | 11 | 36 | 6.4 | 6.4 | 0.20 | 2.13 | 1.52 | 83 | 1007.7 |
| 20260506180004 | 11 | 359 | 6.4 | 12.9 | 0.20 | 2.13 | 1.52 | 83 | 1007.4 |
| 20260506175503 | 12 | 29 | 9.7 | 12.9 | 0.18 | 2.16 | 1.50 | 82 | 1007.4 |
| 20260506175003 | 12 | 60 | 6.4 | 11.3 | 0.15 | 2.13 | 1.47 | 82 | 1007.1 |
| 20260506174503 | 12 | 83 | 6.4 | 9.7 | 0.15 | 2.13 | 1.47 | 82 | 1006.8 |
| 20260506174003 | 12 | 90 | 4.8 | 9.7 | 0.13 | 2.11 | 1.45 | 81 | 1006.8 |
| 20260506173503 | 12 | 273 | 4.8 | 12.9 | 0.10 | 2.06 | 1.42 | 78 | 1006.7 |
| 20260506173003 | 12 | 146 | 12.9 | 19.3 | 0.05 | 2.06 | 1.37 | 78 | 1006.7 |
| 20260506172503 | 12 | 111 | 14.5 | 19.3 | 0.03 | 2.03 | 1.35 | 78 | 1006.3 |
| 20260506172003 | 12 | 70 | 11.3 | 19.3 | 0.03 | 2.06 | 1.35 | 77 | 1006.1 |
| 20260506171503 | 12 | 32 | 9.7 | 12.9 | 0.00 | 2.06 | 1.32 | 77 | 1006.3 |
| 20260506171003 | 12 | 11 | 8.0 | 12.9 | 0.00 | 2.11 | 1.32 | 77 | 1006.4 |
| 20260506170503 | 12 | 12 | 8.0 | 14.5 | 0.00 | 2.11 | 1.32 | 77 | 1006.3 |
| 20260506170003 | 13 | 18 | 9.7 | 16.1 | 0.00 | 2.11 | 1.32 | 77 | 1006.3 |
| 20260506165524 | 13 | 17 | 12.9 | 17.7 | 0.00 | 2.13 | 1.32 | 77 | 1006.0 |
| 20260506165003 | 13 | 19 | 14.5 | 17.7 | 0.00 | 2.16 | 1.32 | 78 | 1006.1 |
| 20260506164503 | 13 | 29 | 14.5 | 19.3 | 0.00 | 2.18 | 1.32 | 78 | 1006.0 |
| 20260506164003 | 13 | 24 | 14.5 | 19.3 | 0.00 | 2.26 | 1.32 | 79 | 1006.0 |
| 20260506163503 | 13 | 22 | 12.9 | 17.7 | 0.00 | 2.29 | 1.32 | 80 | 1005.8 |
| 20260506163003 | 13 | 18 | 14.5 | 17.7 | 0.00 | 2.31 | 1.32 | 80 | 1005.8 |
| 20260506162503 | 13 | 14 | 9.7 | 16.1 | 0.00 | 2.31 | 1.32 | 80 | 1005.7 |
| 20260506162003 | 13 | 23 | 8.0 | 12.9 | 0.00 | 2.31 | 1.32 | 80 | 1005.6 |
| 20260506161503 | 13 | 26 | 8.0 | 11.3 | 0.00 | 2.31 | 1.32 | 80 | 1005.8 |
| 20260506161003 | 13 | 18 | 8.0 | 12.9 | 0.00 | 2.31 | 1.32 | 80 | 1005.6 |
| 20260506160503 | 13 | 16 | 9.7 | 17.7 | 0.00 | 2.34 | 1.32 | 80 | 1005.4 |
| 20260506160003 | 13 | 22 | 12.9 | 17.7 | 0.00 | 2.34 | 1.32 | 80 | 1005.3 |
| 20260506155503 | 14 | 29 | 12.9 | 17.7 | 0.00 | 2.34 | 1.32 | 81 | 1005.3 |
| 20260506155024 | 14 | 25 | 12.9 | 20.9 | 0.00 | 2.34 | 1.32 | 81 | 1005.3 |
| 20260506154503 | 14 | 23 | 14.5 | 20.9 | 0.00 | 2.36 | 1.32 | 81 | 1005.4 |
| 20260506154003 | 14 | 29 | 16.1 | 22.5 | 0.00 | 2.36 | 1.32 | 82 | 1005.4 |
| 20260506153503 | 13 | 23 | 16.1 | 22.5 | 0.00 | 2.36 | 1.32 | 82 | 1005.6 |
| 20260506153003 | 13 | 17 | 17.7 | 22.5 | 0.00 | 2.36 | 1.32 | 83 | 1005.6 |
| 20260506152503 | 13 | 20 | 16.1 | 24.1 | 0.00 | 2.36 | 1.32 | 83 | 1005.5 |
| 20260506152003 | 13 | 17 | 14.5 | 24.1 | 0.00 | 2.36 | 1.32 | 84 | 1005.7 |
| 20260506151503 | 13 | 13 | 16.1 | 19.3 | 0.00 | 2.36 | 1.32 | 85 | 1005.8 |
| 20260506151003 | 13 | 23 | 17.7 | 19.3 | 0.00 | 2.36 | 1.32 | 85 | 1005.5 |
| 20260506150503 | 13 | 28 | 14.5 | 19.3 | 0.00 | 2.36 | 1.32 | 86 | 1005.9 |
| 20260506150003 | 12 | 34 | 14.5 | 17.7 | 0.00 | 2.36 | 1.32 | 86 | 1005.9 |
| 20260506145503 | 12 | 48 | 12.9 | 16.1 | 0.00 | 2.39 | 1.32 | 86 | 1006.1 |
| 20260506145024 | 12 | 53 | 14.5 | 17.7 | 0.00 | 2.39 | 1.32 | 87 | 1006.1 |
| 20260506144503 | 12 | 43 | 14.5 | 17.7 | 0.00 | 2.39 | 1.32 | 87 | 1006.2 |
| 20260506144003 | 12 | 40 | 14.5 | 17.7 | 0.00 | 2.44 | 1.32 | 88 | 1006.0 |
| 20260506143503 | 12 | 40 | 14.5 | 17.7 | 0.00 | 2.44 | 1.32 | 88 | 1006.0 |
| 20260506143024 | 12 | 38 | 12.9 | 17.7 | 0.00 | 2.46 | 1.32 | 88 | 1006.0 |
| 20260506142503 | 12 | 35 | 16.1 | 22.5 | 0.00 | 2.46 | 1.32 | 89 | 1005.9 |
| 20260506142024 | 12 | 41 | 17.7 | 22.5 | 0.00 | 2.46 | 1.32 | 89 | 1006.1 |
| 20260506141503 | 13 | 49 | 16.1 | 20.9 | 0.00 | 2.46 | 1.32 | 90 | 1006.1 |
| 20260506141003 | 13 | 42 | 14.5 | 17.7 | 0.10 | 2.46 | 1.32 | 90 | 1006.2 |
| 20260506140503 | 13 | 32 | 14.5 | 17.7 | 0.13 | 2.46 | 1.32 | 91 | 1006.1 |
| 20260506140003 | 13 | 19 | 12.9 | 17.7 | 0.23 | 2.49 | 1.32 | 91 | 1006.0 |
| 20260506135503 | 12 | 5 | 11.3 | 17.7 | 0.33 | 2.49 | 1.32 | 91 | 1006.0 |
| 20260506135024 | 12 | 356 | 11.3 | 14.5 | 0.53 | 2.49 | 1.32 | 91 | 1006.1 |
| 20260506134503 | 12 | 3 | 9.7 | 14.5 | 0.56 | 2.51 | 1.32 | 90 | 1006.0 |
| 20260506134003 | 12 | 20 | 9.7 | 11.3 | 0.64 | 2.51 | 1.32 | 92 | 1006.2 |
| 20260506133503 | 11 | 22 | 8.0 | 11.3 | 0.64 | 2.51 | 1.32 | 92 | 1006.1 |
| 20260506133003 | 11 | 10 | 6.4 | 9.7 | 0.64 | 2.54 | 1.32 | 92 | 1006.1 |
| 20260506132503 | 11 | 335 | 8.0 | 11.3 | 0.64 | 2.54 | 1.32 | 91 | 1006.5 |
| 20260506132003 | 10 | 345 | 8.0 | 12.9 | 0.64 | 2.54 | 1.32 | 91 | 1006.3 |
| 20260506131503 | 10 | 24 | 9.7 | 12.9 | 0.64 | 2.59 | 1.32 | 90 | 1006.4 |
| 20260506131003 | 10 | 31 | 9.7 | 12.9 | 0.53 | 2.49 | 1.22 | 90 | 1006.6 |
| 20260506130503 | 10 | 8 | 9.7 | 17.7 | 0.51 | 2.46 | 1.19 | 90 | 1006.5 |
| 20260506130003 | 10 | 333 | 11.3 | 17.7 | 0.38 | 2.34 | 1.09 | 89 | 1006.5 |